TimeEDT,TemperatureF,Dew PointF,Humidity,Sea Level PressureIn,VisibilityMPH,Wind Direction,Wind SpeedMPH,Gust SpeedMPH,PrecipitationIn,Events,Conditions,WindDirDegrees,DateUTC
12:15 AM,71.6,69.8,94,29.97,10.0,Calm,Calm,-,N/A,,Clear,0,2012-10-07 04:15:00
12:35 AM,69.8,69.8,100,29.96,10.0,Calm,Calm,-,N/A,,Clear,0,2012-10-07 04:35:00
12:55 AM,69.8,69.8,100,29.96,7.0,Calm,Calm,-,N/A,,Scattered Clouds,0,2012-10-07 04:55:00
1:15 AM,69.8,69.8,100,29.96,7.0,Calm,Calm,-,N/A,,Scattered Clouds,0,2012-10-07 05:15:00
1:35 AM,69.8,69.8,100,29.96,7.0,Calm,Calm,-,N/A,,Clear,0,2012-10-07 05:35:00
1:55 AM,69.8,69.8,100,29.96,7.0,Calm,Calm,-,N/A,,Clear,0,2012-10-07 05:55:00
2:15 AM,69.8,69.8,100,29.96,7.0,Calm,Calm,-,N/A,,Clear,0,2012-10-07 06:15:00
2:35 AM,68.0,68.0,100,29.96,4.0,Calm,Calm,-,N/A,,Clear,0,2012-10-07 06:35:00
2:55 AM,69.8,69.8,100,29.96,5.0,Calm,Calm,-,N/A,,Clear,0,2012-10-07 06:55:00
3:15 AM,69.8,68.0,94,29.95,3.0,Calm,Calm,-,N/A,,Clear,0,2012-10-07 07:15:00
3:35 AM,69.8,68.0,94,29.95,5.0,Calm,Calm,-,N/A,,Clear,0,2012-10-07 07:35:00
3:55 AM,68.0,68.0,100,29.95,4.0,Calm,Calm,-,N/A,,Scattered Clouds,0,2012-10-07 07:55:00
4:15 AM,69.8,68.0,94,29.94,1.2,Calm,Calm,-,N/A,,Mostly Cloudy,0,2012-10-07 08:15:00
4:35 AM,68.0,68.0,100,29.94,1.0,Calm,Calm,-,N/A,,Mostly Cloudy,0,2012-10-07 08:35:00
4:55 AM,69.8,68.0,94,29.94,0.8,Calm,Calm,-,N/A,,Overcast,0,2012-10-07 08:55:00
5:15 AM,69.8,68.0,94,29.94,5.0,Calm,Calm,-,N/A,,Scattered Clouds,0,2012-10-07 09:15:00
5:35 AM,68.0,68.0,100,29.94,2.0,Calm,Calm,-,N/A,,Mostly Cloudy,0,2012-10-07 09:35:00
5:55 AM,68.0,68.0,100,29.95,0.5,Calm,Calm,-,N/A,,Overcast,0,2012-10-07 09:55:00
6:15 AM,68.0,66.2,94,29.95,0.5,Calm,Calm,-,N/A,,Overcast,0,2012-10-07 10:15:00
6:35 AM,68.0,68.0,100,29.96,0.5,Calm,Calm,-,N/A,,Overcast,0,2012-10-07 10:35:00
6:55 AM,68.0,66.2,94,29.97,0.2,Calm,Calm,-,N/A,,Overcast,0,2012-10-07 10:55:00
7:15 AM,66.2,66.2,100,29.97,0.2,Calm,Calm,-,N/A,,Overcast,0,2012-10-07 11:15:00
7:35 AM,66.2,66.2,100,29.97,0.2,Calm,Calm,-,N/A,,Overcast,0,2012-10-07 11:35:00
7:55 AM,66.2,66.2,100,29.98,0.5,Calm,Calm,-,N/A,,Overcast,0,2012-10-07 11:55:00
8:15 AM,68.0,68.0,100,29.98,0.5,Calm,Calm,-,N/A,,Overcast,0,2012-10-07 12:15:00
8:35 AM,69.8,69.8,100,29.98,2.5,Calm,Calm,-,N/A,,Mostly Cloudy,0,2012-10-07 12:35:00
8:55 AM,71.6,71.6,100,29.99,5.0,Calm,Calm,-,N/A,,Mostly Cloudy,0,2012-10-07 12:55:00
9:15 AM,71.6,71.6,100,29.99,2.0,West,3.5,-,N/A,,Overcast,280,2012-10-07 13:15:00
9:35 AM,71.6,71.6,100,30.00,10.0,Calm,Calm,-,N/A,,Mostly Cloudy,0,2012-10-07 13:35:00
9:55 AM,73.4,73.4,100,30.00,10.0,WNW,5.8,-,N/A,,Scattered Clouds,290,2012-10-07 13:55:00
10:15 AM,75.2,73.4,94,29.99,10.0,NNW,4.6,-,N/A,,Clear,340,2012-10-07 14:15:00
10:35 AM,78.8,71.6,78,30.00,10.0,NNW,4.6,-,N/A,,Clear,340,2012-10-07 14:35:00
10:55 AM,78.8,71.6,78,30.00,10.0,NNW,4.6,-,N/A,,Clear,340,2012-10-07 14:55:00
11:15 AM,80.6,73.4,79,30.00,10.0,North,4.6,-,N/A,,Clear,350,2012-10-07 15:15:00
11:35 AM,80.6,73.4,79,30.00,10.0,North,5.8,-,N/A,,Clear,360,2012-10-07 15:35:00
11:55 AM,82.4,73.4,74,29.99,10.0,NNE,3.5,-,N/A,,Clear,20,2012-10-07 15:55:00
12:15 PM,82.4,73.4,74,29.99,10.0,Calm,Calm,-,N/A,,Clear,0,2012-10-07 16:15:00
12:35 PM,84.2,71.6,66,29.99,10.0,NNW,3.5,-,N/A,,Clear,330,2012-10-07 16:35:00
12:55 PM,84.2,71.6,66,29.98,10.0,NNW,6.9,-,N/A,,Scattered Clouds,340,2012-10-07 16:55:00
1:15 PM,84.2,71.6,66,29.98,10.0,WNW,4.6,-,N/A,,Scattered Clouds,290,2012-10-07 17:15:00
1:35 PM,84.2,71.6,66,29.97,10.0,North,6.9,-,N/A,,Mostly Cloudy,350,2012-10-07 17:35:00
1:55 PM,84.2,69.8,62,29.96,10.0,Calm,Calm,-,N/A,,Scattered Clouds,0,2012-10-07 17:55:00
2:15 PM,87.8,69.8,55,29.96,10.0,WNW,4.6,-,N/A,,Clear,300,2012-10-07 18:15:00
2:35 PM,87.8,69.8,55,29.95,10.0,WNW,8.1,-,N/A,,Clear,300,2012-10-07 18:35:00
2:55 PM,86.0,69.8,58,29.94,10.0,WNW,3.5,-,N/A,,Clear,300,2012-10-07 18:55:00
3:15 PM,86.0,68.0,55,29.94,10.0,West,5.8,-,N/A,,Clear,280,2012-10-07 19:15:00
3:35 PM,84.2,68.0,58,29.93,10.0,NW,6.9,-,N/A,,Clear,310,2012-10-07 19:35:00
3:55 PM,87.8,68.0,52,29.94,10.0,West,4.6,-,N/A,,Clear,280,2012-10-07 19:55:00
4:15 PM,87.8,68.0,52,29.93,10.0,NW,8.1,-,N/A,,Clear,310,2012-10-07 20:15:00
4:35 PM,87.8,66.2,49,29.93,10.0,WNW,6.9,-,N/A,,Mostly Cloudy,300,2012-10-07 20:35:00
4:55 PM,87.8,66.2,49,29.93,10.0,WNW,6.9,-,N/A,,Scattered Clouds,290,2012-10-07 20:55:00
5:15 PM,87.8,66.2,49,29.93,10.0,WNW,5.8,-,N/A,,Clear,290,2012-10-07 21:15:00
5:35 PM,87.8,66.2,49,29.93,10.0,NNW,6.9,-,N/A,,Clear,330,2012-10-07 21:35:00
5:55 PM,86.0,66.2,51,29.93,10.0,NW,5.8,-,N/A,,Clear,320,2012-10-07 21:55:00
6:15 PM,84.2,66.2,55,29.93,10.0,NNW,5.8,-,N/A,,Clear,340,2012-10-07 22:15:00
6:35 PM,82.4,68.0,62,29.93,10.0,North,4.6,-,N/A,,Clear,350,2012-10-07 22:35:00
6:55 PM,80.6,68.0,65,29.94,10.0,North,4.6,-,N/A,,Clear,350,2012-10-07 22:55:00
7:15 PM,78.8,68.0,69,29.95,10.0,North,4.6,-,N/A,,Clear,350,2012-10-07 23:15:00
7:35 PM,77.0,68.0,74,29.95,10.0,North,4.6,-,N/A,,Clear,360,2012-10-07 23:35:00
7:55 PM,75.2,68.0,78,29.96,10.0,Calm,Calm,-,N/A,,Clear,0,2012-10-07 23:55:00
8:15 PM,75.2,69.8,83,29.97,10.0,Calm,Calm,-,N/A,,Scattered Clouds,0,2012-10-08 00:15:00
8:35 PM,75.2,69.8,83,29.97,10.0,Calm,Calm,-,N/A,,Scattered Clouds,0,2012-10-08 00:35:00
8:55 PM,73.4,69.8,88,29.98,10.0,ESE,5.8,-,N/A,,Mostly Cloudy,110,2012-10-08 00:55:00
9:15 PM,75.2,68.0,78,29.98,10.0,ENE,4.6,-,N/A,,Mostly Cloudy,70,2012-10-08 01:15:00
9:35 PM,75.2,69.8,83,29.99,10.0,East,4.6,-,N/A,,Scattered Clouds,80,2012-10-08 01:35:00
9:55 PM,75.2,69.8,83,30.00,10.0,ESE,4.6,-,N/A,,Mostly Cloudy,120,2012-10-08 01:55:00
10:15 PM,75.2,71.6,89,30.00,10.0,Calm,Calm,-,N/A,,Overcast,0,2012-10-08 02:15:00
10:35 PM,75.2,71.6,89,30.00,10.0,SE,3.5,-,N/A,,Mostly Cloudy,140,2012-10-08 02:35:00
10:55 PM,75.2,71.6,89,30.01,10.0,SE,4.6,-,N/A,,Clear,140,2012-10-08 02:55:00
11:15 PM,75.2,71.6,89,30.01,10.0,South,3.5,-,N/A,,Clear,170,2012-10-08 03:15:00
11:35 PM,75.2,71.6,89,30.01,10.0,South,3.5,-,N/A,,Clear,190,2012-10-08 03:35:00
11:55 PM,73.4,69.8,88,30.01,10.0,Calm,Calm,-,N/A,,Scattered Clouds,0,2012-10-08 03:55:00